Location: Austin
(30.3000°N, 97.7500°W)
Time: 11:16:58
(UTC-05:00)

Meteor 1-11 Rocket - Pass Details

Date: 26 May 2023
Orbit: 831 x 915 km, 81.2° (Epoch: 31 May)

Event Time Altitude Azimuth Distance (km) Brightness Sun altitude
Rises 22:02:46 0° 359° (N) 3,522 7.5 -18.7°
Reaches altitude 10° 22:05:19 10° 5° (N) 2,588 6.7 -19.1°
Maximum altitude 22:11:02 49° 80° (E) 1,160 4.1 -20.0°
Enters shadow 22:12:50 37° 126° (SE) 1,375 4.3 -20.3°
